Zurück zum Katalog

STARLINK-30947

AktivKommunikationVLEO
NORAD 58473·PAYLOAD·🇺🇸 United States

Gestartet Dec 3, 2023 von Cape Canaveral Space Force Station

Loading…

Nächste Überflüge (nächste 24 Stunden)

TLE

AktuellSource: CelesTrak SupGP

Epoche: Sep 14, 2026, 22:28 UTC

1 58473C 23186A   26257.93659722  .00066049  00000+0  23903-2 0  2572
2 58473  43.0015  78.4317 0001613 266.4048 230.9407 15.27572500    13

Verfolge STARLINK-30947 in Echtzeit mit AllMySat

Download on the App Store